Location: T�bingen+AIT
(48.5342°N, 9.0700°E)
Time: 15:07:40
(UTC+01:00)

H-2A R/B - Pass Details

Date: 14 September 2017
Orbit: 578 x 657 km, 98.4° (Epoch: 18 November)

Event Time Altitude Azimuth Distance (km) Brightness Sun altitude
Exits shadow 23:12:30 23° 14° (NNE) 1,389 4.1 -31.5°
Drops below altitude 10° 23:14:28 10° 359° (N) 2,079 5.3 -31.7°
Sets 23:16:47 0° 352° (N) 2,990 6.4 -31.9°
